[[{"header":{"parameterUnit":"m.s-1","parameterCategory":2,"la1":30.2991,"la2":30.254,"lo1":-89.0895,"lo2":-89.0444,"dy":0.0017,"dx":0.0017,"nx":28,"ny":28,"refTime":"2023-08-12T21:00:00:Z","depth":"0","parameterNumber":2,"parameterNumberName":"U-component_of_CURRENTS"},"data":[0,0,0,0,0,0,0,0,0,0,0,0,0,0,0,0,0,0,0,0,0,0,0,0,0,0,0,0,0,0,0,0,0,0,0,0,0,0,0,0,0,0,0,0,0,0,0,0,0,0,0,0,0,0,0,0,0,0,0.5611,0.5612,0,0.565,0.565,0.5649,0.5587,0.5586,0.5585,0.5584,0.5586,0.5587,0.5588,0,0,0,0,0,0,0,0,0,0,0,0,0,0.5404,0.5408,0.561,0.5612,0.5614,0.565,0.565,0.5649,0.5587,0.5586,0.5585,0.5583,0.5586,0.5587,0.5589,0,0,0,0,0,0,0,0,0,0,0,0,0,0.5463,0.5409,0.561,0.5596,0.5596,0.565,0.565,0.5649,0.5587,0.5586,0.5584,0.5583,0.5586,0.5587,0.5589,0.563,0,0,0.5594,0.5594,0,0,0,0,0,0,0,0,0.5459,0.5469,0.5596,0.5597,0.5597,0.5622,0.5578,0.5645,0.5588,0.5578,0.5584,0.5582,0.5604,0.5604,0.5598,0.563,0.563,0.5594,0.5595,0.5595,0.5596,0,0,0,0,0,0,0,0.5456,0.5466,0.5614,0.5599,0.5599,0.5562,0.5568,0.5589,0.5589,0.5579,0.5577,0.5601,0.5602,0.5597,0.5598,0.563,0.5594,0.5595,0.5596,0.5597,0.5806,0.5811,0,0,0,0,0,0,0.5482,0.5464,0.5613,0.5616,0.5537,0.5568,0.5574,0.5606,0.559,0.559,0.5603,0.5599,0.5595,0.5596,0.5598,0.5674,0.5595,0.5597,0.5598,0.5802,0.5807,0.5812,0,0,0,0,0,0,0.5477,0.5495,0.5612,0.5549,0.5563,0.5575,0.561,0.5608,0.5614,0.5611,0.5607,0.5613,0.5594,0.5596,0.5664,0.5672,0.5598,0.5599,0.5796,0.5803,0.581,0.5808,0,0,0,0,0,0,0.5471,0.5493,0.552,0.5552,0.5568,0.5671,0.5613,0.561,0.5636,0.5631,0.5619,0.5617,0.5593,0.5662,0.5666,0.5673,0.56,0.579,0.5799,0.5807,0.5802,0.5814,0.5824,0,0,0,0,0,0.5463,0.5505,0.5521,0.5539,0.5607,0.5675,0.5679,0.5672,0.5639,0.5664,0.5671,0.5617,0.5719,0.5668,0.567,0.5678,0.5786,0.5797,0.5807,0.5797,0.5811,0.5824,0,0,0,0,0,0,0.5423,0.5506,0.5522,0.5586,0.5644,0.5669,0.5687,0.5689,0.571,0.5695,0.5675,0.5676,0.5754,0.5743,0.5686,0.5779,0.5745,0.5757,0.5737,0.5751,0.5762,0.5761,0.5602,0,0,0,0,0,0.5437,0.5488,0.5564,0.5616,0.5646,0.567,0.5693,0.57,0.5728,0.5732,0.5739,0.5757,0.58,0.5795,0.5848,0.5877,0.5919,0.5896,0.5906,0.5915,0.5928,0.6028,0.6047,0.5846,0.5846,0.5846,0,0,0.5431,0.5489,0.5514,0.5612,0.564,0.5679,0.5676,0.5725,0.5743,0.5734,0.5764,0.5816,0.5837,0.5889,0.5916,0.5865,0.6001,0.5928,0.5933,0.5942,0.604,0.6059,0.6076,0.5853,0.5852,0.5851,0,0,0.5438,0.5505,0.554,0.5593,0.567,0.5697,0.5722,0.5776,0.5787,0.5849,0.5859,0.5933,0.5965,0.5989,0.5997,0.6111,0.609,0.6118,0.6115,0.6212,0.6227,0.6241,0.6327,0.6349,0.6077,0.6077,0.6077,0,0.5429,0.5492,0.5562,0.5605,0.5644,0.5706,0.5739,0.5768,0.584,0.5865,0.5866,0.5991,0.6012,0.6069,0.6107,0.6127,0.6177,0.6038,0.6219,0.6234,0.6248,0.6332,0.6356,0.6079,0.6078,0.6078,0.6078,0,0.545,0.5504,0.5532,0.5605,0.5656,0.5709,0.5772,0.5821,0.5851,0.5885,0.5994,0.6061,0.6116,0.6147,0.6146,0.6255,0.6259,0.6247,0.6162,0.6267,0.6351,0.6376,0.608,0.608,0.6079,0.6079,0,0,0.5416,0.5527,0.5532,0.5547,0.5665,0.5688,0.5757,0.5835,0.5842,0.5952,0.599,0.6114,0.6157,0.6181,0.6212,0.6289,0.6439,0.6295,0.6299,0.6339,0.6652,0.6554,0.6572,0.6441,0.6446,0.6449,0.6669,0,0.5413,0.5464,0.5539,0.5571,0.5598,0.5688,0.5727,0.5798,0.5866,0.5923,0.6035,0.6106,0.6158,0.6186,0.628,0.6414,0.6504,0.6381,0.6581,0.6588,0.6454,0.6597,0.6294,0.6456,0.6694,0.6698,0.6701,0,0.5398,0.5438,0.5475,0.553,0.5547,0.5575,0.564,0.5693,0.5808,0.5864,0.5979,0.6064,0.6224,0.6242,0.6519,0.6433,0.6553,0.6655,0.6665,0.6589,0.6537,0.6396,0.6492,0.6269,0.6738,0.6735,0.6733,0,0.5295,0.5379,0.5398,0.5424,0.5507,0.5527,0.5574,0.5673,0.5711,0.5846,0.5895,0.6081,0.6178,0.6383,0.6607,0.657,0.6906,0.6866,0.6902,0.6896,0.6688,0.6655,0.6552,0.7075,0.7075,0.7074,0.7073,0,0.5258,0.5254,0.534,0.5339,0.5336,0.5427,0.5438,0.5515,0.5625,0.5679,0.5853,0.5946,0.6224,0.6434,0.6626,0.6852,0.693,0.6948,0.6961,0.6682,0.6648,0.6483,0.6366,0.7082,0.708,0.7079,0.7077,0,0.5133,0.5202,0.5206,0.5276,0.5289,0.528,0.5355,0.5363,0.5495,0.5581,0.5639,0.5884,0.6158,0.6428,0.6766,0.6856,0.6891,0.7148,0.68,0.6767,0.6526,0.6422,0.6281,0.6113,0.7205,0.7204,0.7203,0,0.507,0.5071,0.5125,0.5119,0.5151,0.5159,0.5167,0.5288,0.5326,0.555,0.5591,0.587,0.6043,0.6489,0.6727,0.7033,0.6848,0.6889,0.676,0.6498,0.6394,0.6223,0.608,0.6503,0.6496,0.6491,0.6487,0,0.4951,0.4982,0.4988,0.4989,0.499,0.4983,0.5022,0.5037,0.52,0.5307,0.5485,0.5647,0.603,0.6191,0.6555,0.6713,0.6489,0.6787,0.6603,0.5917,0.5638,0.5483,0.6378,0.644,0.6445,0.6448,0.6451,0.6452,0.4851,0.4833,0.4859,0.4845,0.4833,0.4813,0.4777,0.4858,0.4928,0.5075,0.5312,0.5468,0.5687,0.6148,0.6266,0.6173,0.6229,0.6005,0.5936,0.5819,0.5517,0.631,0.632,0.6323,0.6327,0.633,0.6332,0,0.473,0.4728,0.4712,0.4679,0.461,0.4666,0.4668,0.4631,0.4678,0.4888,0.5044,0.5142,0.5271,0.5434,0.5494,0.5347,0.5204,0.5177,0.4829,0.4762,0.5542,0.5363,0.5053,0.5053,0.5054,0.5054,0.5054,0.5054,0.4663,0.4614,0.4617,0.4479,0.4444,0.4342,0.4329,0.4321,0.4413,0.4432,0.4453,0.4567,0.4721,0.4798,0.4664,0.4596,0.4267,0.4091,0.4141,0.4618,0.4688,0.4754,0.4559,0.4086,0.4084,0.3187,0.3179,0.3173]},{"header":{"parameterUnit":"m.s-1","parameterCategory":2,"la1":30.2991,"la2":30.254,"lo1":-89.0895,"lo2":-89.0444,"dy":0.0017,"dx":0.0017,"nx":28,"ny":28,"refTime":"2023-08-12T21:00:00:Z","depth":"0","parameterNumber":3,"parameterNumberName":"V-component_of_CURRENTS"},"data":[0,0,0,0,0,0,0,0,0,0,0,0,0,0,0,0,0,0,0,0,0,0,0,0,0,0,0,0,0,0,0,0,0,0,0,0,0,0,0,0,0,0,0,0,0,0,0,0,0,0,0,0,0,0,0,0,0,0,0.0627,0.0627,0,0.0586,0.0585,0.0584,0.0497,0.0495,0.0494,0.0493,0.0439,0.0439,0.0439,0,0,0,0,0,0,0,0,0,0,0,0,0,0.055,0.0552,0.0627,0.0627,0.0627,0.0586,0.0585,0.0584,0.0497,0.0495,0.0494,0.0492,0.0439,0.0439,0.0439,0,0,0,0,0,0,0,0,0,0,0,0,0,0.055,0.0553,0.0627,0.0581,0.0577,0.0586,0.0585,0.0584,0.0497,0.0495,0.0493,0.0491,0.0439,0.0439,0.0439,0.0479,0,0,0.0438,0.0438,0,0,0,0,0,0,0,0,0.055,0.0552,0.0588,0.0584,0.058,0.0548,0.0539,0.055,0.0498,0.0523,0.0493,0.049,0.0479,0.0475,0.0466,0.0477,0.0474,0.0438,0.0438,0.0438,0.0438,0,0,0,0,0,0,0,0.055,0.0553,0.0606,0.0588,0.0583,0.0536,0.0534,0.054,0.051,0.0521,0.0515,0.0518,0.0475,0.0467,0.0464,0.0474,0.0438,0.0438,0.0438,0.0438,0.0568,0.0571,0,0,0,0,0,0,0.0571,0.0554,0.0608,0.0605,0.0564,0.054,0.0537,0.0557,0.051,0.0502,0.052,0.0514,0.0468,0.0465,0.0462,0.0559,0.0438,0.0438,0.0438,0.0564,0.0568,0.0572,0,0,0,0,0,0,0.057,0.0577,0.0609,0.058,0.0582,0.0544,0.0566,0.0557,0.0545,0.051,0.05,0.0517,0.0466,0.0462,0.0506,0.0554,0.0438,0.0438,0.056,0.0565,0.057,0.072,0,0,0,0,0,0,0.0568,0.0577,0.0603,0.0583,0.0585,0.064,0.0569,0.0558,0.0552,0.0544,0.0505,0.0498,0.0464,0.0507,0.0506,0.0552,0.0437,0.0555,0.0562,0.0569,0.0711,0.073,0.0746,0,0,0,0,0,0.0566,0.0623,0.0605,0.0612,0.0621,0.0643,0.064,0.0601,0.0554,0.0575,0.0561,0.0498,0.0547,0.0511,0.0508,0.0555,0.0552,0.056,0.0568,0.0703,0.0726,0.0746,0,0,0,0,0,0,0.0618,0.062,0.0599,0.0657,0.0658,0.063,0.0652,0.0613,0.0613,0.0607,0.0551,0.0547,0.0603,0.0569,0.0529,0.0615,0.0537,0.0545,0.064,0.0662,0.068,0.0682,0.0437,0,0,0,0,0,0.0641,0.0676,0.0667,0.0716,0.0721,0.0683,0.0685,0.0661,0.0656,0.065,0.0631,0.0621,0.0637,0.064,0.0651,0.07,0.0649,0.0729,0.0747,0.0762,0.0766,0.075,0.0765,0.0599,0.0598,0.0598,0,0,0.0675,0.0682,0.0701,0.0727,0.072,0.0753,0.0679,0.0703,0.0732,0.0651,0.07,0.0689,0.0669,0.0731,0.075,0.0703,0.0787,0.0772,0.0785,0.078,0.076,0.0775,0.0789,0.0604,0.0603,0.0602,0,0,0.0749,0.0768,0.0807,0.082,0.0827,0.0819,0.083,0.082,0.0819,0.0869,0.0823,0.085,0.0865,0.0867,0.0865,0.0991,0.0889,0.0987,0.1069,0.1055,0.1068,0.1078,0.1041,0.1046,0.0987,0.0987,0.0987,0,0.078,0.0834,0.0825,0.0865,0.0888,0.0854,0.0901,0.0913,0.0921,0.0941,0.0911,0.0951,0.0934,0.0993,0.1037,0.1029,0.0988,0.0985,0.1076,0.1085,0.1093,0.1051,0.1056,0.0995,0.0994,0.0994,0.0993,0,0.0868,0.0914,0.0949,0.0985,0.1016,0.1062,0.1074,0.1112,0.1106,0.1104,0.1167,0.1155,0.1166,0.1175,0.1142,0.1201,0.1143,0.1104,0.1013,0.1118,0.1068,0.107,0.1007,0.1004,0.1002,0.1,0,0,0.092,0.099,0.1,0.1031,0.1082,0.1115,0.1197,0.1251,0.1293,0.1314,0.1365,0.1402,0.1367,0.1364,0.1326,0.1315,0.1343,0.1237,0.1232,0.1186,0.129,0.122,0.1213,0.1308,0.1309,0.131,0.1233,0,0.098,0.1068,0.1096,0.1194,0.1241,0.1265,0.1342,0.1391,0.1421,0.1475,0.1467,0.1506,0.1446,0.1451,0.144,0.1379,0.1354,0.1366,0.1206,0.1202,0.1115,0.1216,0.1141,0.1064,0.1234,0.1234,0.1234,0,0.1045,0.1096,0.1192,0.1287,0.1312,0.1371,0.1475,0.1539,0.1609,0.1631,0.1661,0.1642,0.1664,0.1581,0.1518,0.1524,0.1419,0.1352,0.1346,0.1226,0.1136,0.0987,0.1059,0.0759,0.1236,0.1236,0.1236,0,0.1064,0.1167,0.1244,0.1277,0.138,0.1436,0.1496,0.1582,0.1654,0.1721,0.1772,0.1771,0.1784,0.1682,0.1558,0.1535,0.1456,0.1402,0.1234,0.1226,0.1104,0.1084,0.0854,0.1332,0.1332,0.1333,0.1333,0,0.1117,0.1179,0.1256,0.1299,0.1407,0.1463,0.1584,0.1642,0.1741,0.1853,0.1841,0.1927,0.1809,0.1756,0.1606,0.144,0.149,0.1265,0.1215,0.1156,0.1143,0.0826,0.0697,0.133,0.133,0.1331,0.1331,0,0.113,0.1179,0.1271,0.1377,0.1418,0.1492,0.1642,0.1732,0.181,0.1955,0.1987,0.2048,0.2015,0.1858,0.1703,0.151,0.1179,0.1254,0.1185,0.1129,0.0694,0.0579,0.0329,0.0241,0.1071,0.1069,0.1067,0,0.1144,0.1188,0.1313,0.1377,0.1429,0.1545,0.1644,0.1756,0.187,0.2052,0.2139,0.2159,0.2241,0.198,0.1652,0.1366,0.1127,0.1033,0.0982,0.0671,0.0505,0.0424,0.0365,0.0876,0.0873,0.087,0.0868,0,0.1169,0.1209,0.1289,0.1414,0.152,0.1657,0.1805,0.1908,0.2071,0.2221,0.2429,0.2512,0.2296,0.2035,0.1596,0.1349,0.0817,0.0971,0.0671,0.0359,0.0236,0.0127,0.0905,0.0845,0.0848,0.0849,0.0851,0.0852,0.1186,0.1246,0.1349,0.1471,0.1599,0.1771,0.1901,0.2091,0.2312,0.2603,0.2656,0.2853,0.2346,0.18,0.1411,0.0573,0.0683,0.0308,0.0202,0.0155,0.0043,0.0767,0.0638,0.0639,0.064,0.064,0.0641,0,0.1214,0.1292,0.1404,0.1568,0.1712,0.178,0.202,0.2188,0.2475,0.2791,0.302,0.2838,0.2215,0.153,0.0432,-0.0114,-0.0276,-0.0427,-0.0585,-0.0595,0.0043,0.0003,-0.0296,-0.0296,-0.0296,-0.0295,-0.0295,-0.0295,0.1237,0.1345,0.141,0.1637,0.1758,0.1976,0.2122,0.2394,0.2658,0.3008,0.3135,0.3197,0.2517,0.065,-0.066,-0.0928,-0.1207,-0.1309,-0.14,-0.1036,-0.0976,-0.092,-0.0992,-0.1494,-0.1496,-0.2006,-0.2012,-0.2017]}],[{"header":{"parameterUnit":"m.s-1","parameterCategory":2,"la1":30.2991,"la2":30.254,"lo1":-89.0895,"lo2":-89.0444,"dy":0.0017,"dx":0.0017,"nx":28,"ny":28,"refTime":"2023-08-12T21:00:00:Z","depth":"2","parameterNumber":2,"parameterNumberName":"U-component_of_CURRENTS"},"data":[0,0,0,0,0,0,0,0,0,0,0,0,0,0,0,0,0,0,0,0,0,0,0,0,0,0,0,0,0,0,0,0,0,0,0,0,0,0,0,0,0,0,0,0,0,0,0,0,0,0,0,0,0,0,0,0,0,0,0.3413,0.3413,0,0.3608,0.3612,0.3616,0.384,0.3841,0.3842,0.3843,0.4002,0.4005,0.4008,0,0,0,0,0,0,0,0,0,0,0,0,0,0.3373,0.3374,0.3413,0.3413,0.3413,0.3607,0.3612,0.3617,0.3839,0.3841,0.3842,0.3843,0.4001,0.4005,0.4008,0,0,0,0,0,0,0,0,0,0,0,0,0,0.3484,0.3374,0.3413,0.353,0.354,0.3606,0.3613,0.3619,0.3839,0.3841,0.3842,0.3844,0.4,0.4004,0.4009,0.4005,0,0,0.4023,0.4026,0,0,0,0,0,0,0,0,0.3477,0.3488,0.3512,0.3521,0.3533,0.368,0.3655,0.3738,0.3839,0.3751,0.3843,0.3845,0.3873,0.3889,0.3957,0.4012,0.4019,0.4024,0.4027,0.4029,0.403,0,0,0,0,0,0,0,0.3469,0.3481,0.3515,0.3512,0.3524,0.3618,0.3638,0.3675,0.3819,0.3759,0.377,0.3752,0.3883,0.3952,0.3962,0.4021,0.4024,0.4028,0.4031,0.4033,0.4221,0.4223,0,0,0,0,0,0,0.3387,0.3473,0.3508,0.3518,0.3481,0.3615,0.3638,0.3651,0.3819,0.384,0.375,0.3761,0.3943,0.3956,0.3968,0.4125,0.4029,0.4033,0.4036,0.4219,0.4222,0.4224,0,0,0,0,0,0,0.3386,0.339,0.35,0.348,0.3497,0.3611,0.3626,0.3653,0.3786,0.3809,0.3835,0.3857,0.3945,0.3961,0.4048,0.4126,0.4035,0.404,0.4217,0.422,0.4223,0.434,0,0,0,0,0,0,0.3385,0.3389,0.3437,0.3474,0.3494,0.362,0.3622,0.3655,0.3755,0.3775,0.3906,0.392,0.3947,0.404,0.4052,0.4131,0.4044,0.4214,0.4218,0.4222,0.4334,0.4347,0.4359,0,0,0,0,0,0.3384,0.3433,0.344,0.3445,0.3535,0.3622,0.365,0.3748,0.3759,0.3868,0.3909,0.392,0.4075,0.4046,0.406,0.4142,0.4212,0.4217,0.4222,0.4328,0.4345,0.4358,0,0,0,0,0,0,0.3444,0.3458,0.3468,0.3521,0.3592,0.3652,0.3742,0.3777,0.3903,0.3917,0.3945,0.3964,0.408,0.4077,0.4044,0.4204,0.4146,0.4154,0.4222,0.4238,0.425,0.4263,0.4048,0,0,0,0,0,0.3461,0.3506,0.3535,0.3582,0.3621,0.3687,0.3746,0.3801,0.3865,0.3931,0.3983,0.4034,0.4101,0.4142,0.4203,0.4276,0.429,0.4335,0.4348,0.4358,0.4376,0.447,0.4493,0.424,0.424,0.424,0,0,0.3472,0.3496,0.3514,0.3598,0.366,0.3724,0.3741,0.384,0.3899,0.3913,0.4036,0.4092,0.4132,0.4238,0.4287,0.425,0.4434,0.4364,0.4374,0.4386,0.4477,0.4502,0.4525,0.4243,0.4243,0.4242,0,0,0.3501,0.3564,0.3611,0.368,0.3762,0.3805,0.3835,0.3921,0.4,0.4075,0.4116,0.4215,0.428,0.436,0.4391,0.4498,0.4506,0.4516,0.4588,0.4679,0.4701,0.4721,0.4757,0.4779,0.4511,0.4512,0.4512,0,0.3523,0.3573,0.3647,0.3714,0.3755,0.3833,0.3889,0.398,0.4078,0.4129,0.4124,0.4281,0.4339,0.4472,0.4533,0.4534,0.4563,0.4531,0.4698,0.4718,0.4737,0.4769,0.4792,0.4518,0.4517,0.4516,0.4516,0,0.357,0.3636,0.3679,0.377,0.385,0.3923,0.3999,0.4101,0.4147,0.4206,0.4353,0.443,0.4515,0.457,0.4591,0.4764,0.4734,0.4715,0.4664,0.477,0.4795,0.4817,0.4527,0.4525,0.4523,0.4521,0,0,0.3526,0.3678,0.3692,0.3735,0.3883,0.3928,0.4051,0.4172,0.4235,0.4354,0.4441,0.4606,0.4655,0.4696,0.4756,0.4861,0.5032,0.4858,0.4859,0.49,0.521,0.4862,0.4851,0.5052,0.5057,0.506,0.5171,0,0.3541,0.3636,0.3721,0.381,0.3865,0.3983,0.4073,0.4197,0.4298,0.4414,0.4544,0.4649,0.4697,0.4747,0.4875,0.5024,0.5098,0.5002,0.5096,0.5098,0.4782,0.4868,0.4568,0.4612,0.5192,0.5195,0.5198,0,0.3548,0.3611,0.3691,0.3807,0.3843,0.391,0.4057,0.4154,0.4356,0.4437,0.4588,0.4672,0.4897,0.4871,0.516,0.5102,0.5162,0.5242,0.5246,0.4896,0.4789,0.4603,0.463,0.5233,0.5231,0.5228,0.5226,0,0.3448,0.3581,0.3631,0.3677,0.3829,0.3888,0.3979,0.4163,0.4256,0.4464,0.4546,0.4773,0.4905,0.5057,0.5223,0.5216,0.5482,0.5469,0.5191,0.5166,0.4911,0.4852,0.5604,0.5604,0.5604,0.5604,0.5603,0,0.3416,0.3453,0.3585,0.3612,0.3673,0.3808,0.3902,0.4037,0.4228,0.4352,0.4549,0.4675,0.497,0.5136,0.525,0.5279,0.549,0.5214,0.5179,0.4932,0.4877,0.5412,0.5388,0.5608,0.5607,0.5606,0.5605,0,0.3304,0.3396,0.345,0.3588,0.363,0.3674,0.3846,0.3915,0.4122,0.4293,0.4361,0.4677,0.4934,0.5127,0.5395,0.5271,0.5344,0.5268,0.4918,0.4833,0.4964,0.4946,0.4997,0.4986,0.4977,0.4969,0.4962,0,0.3259,0.3274,0.3396,0.3422,0.3488,0.3574,0.3635,0.3843,0.3934,0.4276,0.4348,0.4651,0.477,0.4976,0.4972,0.5007,0.5214,0.4578,0.4469,0.4945,0.4908,0.4904,0.4898,0.4216,0.4203,0.4194,0.4185,0,0.3158,0.3202,0.3245,0.3304,0.336,0.3413,0.3531,0.3584,0.3843,0.4,0.4222,0.4328,0.4535,0.4444,0.4408,0.4386,0.4546,0.4355,0.5035,0.4341,0.4195,0.4161,0.4186,0.4096,0.4105,0.4112,0.4117,0.412,0.307,0.3073,0.3132,0.3179,0.3218,0.3246,0.3255,0.3391,0.351,0.3665,0.3903,0.396,0.4,0.383,0.3733,0.3699,0.3983,0.3788,0.3828,0.3877,0.3691,0.3528,0.3271,0.3275,0.3278,0.3282,0.3284,0,0.296,0.2986,0.3008,0.3034,0.2999,0.3106,0.3167,0.3143,0.3215,0.3342,0.3431,0.3177,0.3076,0.3245,0.3021,0.285,0.2932,0.2767,0.292,0.3007,0.3086,0.2869,0.2227,0.2224,0.222,0.2217,0,0,0.2907,0.2889,0.2908,0.282,0.2834,0.2785,0.2798,0.2787,0.2838,0.2745,0.275,0.2874,0.3056,0.26,0.251,0.2362,0.2676,0.2269,0.3123,0.3393,0.3468,0.3677,0.3436,0,0,0,0,0]},{"header":{"parameterUnit":"m.s-1","parameterCategory":2,"la1":30.2991,"la2":30.254,"lo1":-89.0895,"lo2":-89.0444,"dy":0.0017,"dx":0.0017,"nx":28,"ny":28,"refTime":"2023-08-12T21:00:00:Z","depth":"2","parameterNumber":3,"parameterNumberName":"V-component_of_CURRENTS"},"data":[0,0,0,0,0,0,0,0,0,0,0,0,0,0,0,0,0,0,0,0,0,0,0,0,0,0,0,0,0,0,0,0,0,0,0,0,0,0,0,0,0,0,0,0,0,0,0,0,0,0,0,0,0,0,0,0,0,0,-0.0384,-0.0385,0,-0.0508,-0.0511,-0.0513,-0.0644,-0.0645,-0.0645,-0.0646,-0.076,-0.0763,-0.0765,0,0,0,0,0,0,0,0,0,0,0,0,0,-0.04,-0.0399,-0.0384,-0.0385,-0.0385,-0.0508,-0.0511,-0.0514,-0.0644,-0.0645,-0.0646,-0.0646,-0.0759,-0.0762,-0.0765,0,0,0,0,0,0,0,0,0,0,0,0,0,-0.0457,-0.0399,-0.0384,-0.0456,-0.0463,-0.0507,-0.0511,-0.0514,-0.0644,-0.0645,-0.0646,-0.0647,-0.0759,-0.0762,-0.0765,-0.0766,0,0,-0.0776,-0.0778,0,0,0,0,0,0,0,0,-0.0453,-0.0458,-0.0445,-0.0451,-0.0459,-0.0551,-0.0558,-0.0594,-0.0643,-0.0588,-0.0646,-0.0647,-0.0681,-0.0691,-0.0729,-0.0771,-0.0776,-0.0777,-0.0779,-0.078,-0.0781,0,0,0,0,0,0,0,-0.0449,-0.0454,-0.0446,-0.0445,-0.0453,-0.0529,-0.0538,-0.0567,-0.0636,-0.0593,-0.0599,-0.0594,-0.0686,-0.0725,-0.0732,-0.0778,-0.0777,-0.078,-0.0782,-0.0783,-0.0805,-0.0804,0,0,0,0,0,0,-0.04,-0.0449,-0.0442,-0.0448,-0.0445,-0.0526,-0.0538,-0.053,-0.0636,-0.065,-0.0592,-0.0599,-0.0719,-0.0728,-0.0737,-0.0676,-0.078,-0.0784,-0.0786,-0.0807,-0.0805,-0.0803,0,0,0,0,0,0,-0.04,-0.0398,-0.0436,-0.0442,-0.0451,-0.0522,-0.0515,-0.0532,-0.0577,-0.0634,-0.065,-0.0619,-0.072,-0.0732,-0.0752,-0.0684,-0.0785,-0.0788,-0.0808,-0.0806,-0.0804,-0.0597,0,0,0,0,0,0,-0.04,-0.0398,-0.0399,-0.0438,-0.0448,-0.0453,-0.0513,-0.0533,-0.0565,-0.0576,-0.0661,-0.0674,-0.0722,-0.0746,-0.0756,-0.069,-0.0791,-0.081,-0.0807,-0.0805,-0.0606,-0.0588,-0.0572,0,0,0,0,0,-0.0401,-0.0376,-0.0399,-0.0398,-0.044,-0.045,-0.0464,-0.0528,-0.0565,-0.0577,-0.0628,-0.0671,-0.0734,-0.0748,-0.0759,-0.0693,-0.0812,-0.0808,-0.0805,-0.0613,-0.0591,-0.0573,0,0,0,0,0,0,-0.0367,-0.0386,-0.0413,-0.0392,-0.0416,-0.0468,-0.0475,-0.0521,-0.0577,-0.0584,-0.0657,-0.0671,-0.0665,-0.0716,-0.073,-0.0696,-0.0778,-0.0776,-0.0628,-0.0608,-0.0592,-0.052,-0.0794,0,0,0,0,0,-0.0358,-0.0349,-0.038,-0.0357,-0.0366,-0.0425,-0.0445,-0.0481,-0.0519,-0.0549,-0.0596,-0.064,-0.0659,-0.0664,-0.0704,-0.0681,-0.0726,-0.0648,-0.0632,-0.0617,-0.0568,-0.0586,-0.0565,-0.0792,-0.0792,-0.0792,0,0,-0.0324,-0.0338,-0.0328,-0.035,-0.0376,-0.0347,-0.0443,-0.0448,-0.0412,-0.0545,-0.0522,-0.0592,-0.0647,-0.0623,-0.0623,-0.0653,-0.0583,-0.0612,-0.0598,-0.0557,-0.058,-0.0557,-0.0537,-0.0789,-0.079,-0.079,0,0,-0.0233,-0.0274,-0.0236,-0.0249,-0.0271,-0.0298,-0.0291,-0.0338,-0.0358,-0.0352,-0.0425,-0.045,-0.0492,-0.0502,-0.0514,-0.0431,-0.0506,-0.045,-0.0285,-0.0303,-0.0283,-0.0266,-0.0314,-0.0303,-0.0426,-0.0425,-0.0425,0,-0.0193,-0.0152,-0.0224,-0.0187,-0.0164,-0.0257,-0.0192,-0.0216,-0.0258,-0.0235,-0.0315,-0.0353,-0.042,-0.0352,-0.0324,-0.0384,-0.042,-0.035,-0.0276,-0.026,-0.0246,-0.0299,-0.029,-0.0415,-0.0416,-0.0417,-0.0418,0,-0.0075,-0.0045,-0.0015,0.0009,0.0014,0.0053,0.0032,0.0034,-0.0006,-0.002,-0.0,-0.0108,-0.0122,-0.0149,-0.0206,-0.0123,-0.0192,-0.0263,-0.0314,-0.021,-0.0274,-0.0268,-0.04,-0.0404,-0.0407,-0.0409,0,0,0.0049,0.0065,0.0081,0.0123,0.0121,0.0151,0.0223,0.0273,0.0344,0.0268,0.0351,0.0289,0.0209,0.0189,0.0096,0.0089,0.0126,-0.0019,-0.0025,-0.0042,0.0079,-0.0067,-0.0076,0.0074,0.0077,0.0079,-0.0012,0,0.0173,0.0279,0.0263,0.0397,0.0451,0.0417,0.0502,0.0532,0.0526,0.0573,0.0481,0.0489,0.0347,0.0325,0.0306,0.0183,0.0157,0.0157,-0.0039,-0.0045,-0.0166,-0.0067,-0.0038,-0.0123,-0.0006,-0.0006,-0.0005,0,0.0305,0.0353,0.0492,0.0588,0.0615,0.0691,0.0808,0.0868,0.0912,0.0901,0.0892,0.0789,0.0778,0.0601,0.0483,0.0493,0.0317,0.0195,0.0187,-0.0003,-0.0176,-0.0208,-0.0117,0.0004,0.0004,0.0003,0.0002,0,0.0417,0.053,0.0647,0.0677,0.0763,0.0848,0.0906,0.0981,0.1058,0.1101,0.1139,0.108,0.1034,0.0863,0.058,0.0549,0.0412,0.0318,0.0017,0.0002,-0.0036,-0.0059,0.0219,0.0219,0.022,0.022,0.022,0,0.0548,0.0648,0.0711,0.0773,0.0943,0.0967,0.115,0.1197,0.1285,0.1412,0.1304,0.1358,0.1099,0.0958,0.0693,0.0387,0.0486,0.0084,-0.0008,0.0028,0.0013,0.0069,0.0053,0.0216,0.0217,0.0218,0.0219,0,0.0648,0.0686,0.0824,0.0941,0.0993,0.1114,0.1276,0.1399,0.1466,0.1621,0.1632,0.1586,0.1432,0.1117,0.0826,0.0521,0.0236,0.0071,0.011,0.0024,-0.0189,-0.0193,-0.0213,-0.0219,-0.0223,-0.0227,-0.023,0,0.0704,0.0782,0.0934,0.1018,0.108,0.1245,0.1364,0.1475,0.1607,0.1765,0.185,0.175,0.1638,0.115,0.0688,0.0202,0.0168,-0.0145,-0.021,-0.0133,-0.0221,-0.0219,-0.0218,-0.0187,-0.019,-0.0192,-0.0193,0,0.0804,0.0856,0.0953,0.1121,0.1264,0.1435,0.1615,0.1752,0.1906,0.2034,0.2171,0.208,0.1619,0.1137,0.0439,0.0128,-0.0054,-0.021,-0.0085,-0.0107,-0.0123,-0.0206,-0.0202,-0.0212,-0.021,-0.0209,-0.0208,-0.0207,0.0867,0.0951,0.1068,0.1236,0.1395,0.1613,0.1776,0.1977,0.2202,0.2342,0.2292,0.2129,0.1592,0.0681,0.0218,-0.0215,-0.0224,-0.0438,-0.0424,-0.0409,-0.0414,-0.044,-0.059,-0.0591,-0.0591,-0.0591,-0.0591,0,0.0931,0.1021,0.1172,0.1373,0.1551,0.1626,0.1927,0.2104,0.2382,0.2373,0.2362,0.1798,0.1204,0.0704,0.001,-0.0496,-0.0454,-0.0595,-0.0434,-0.0416,-0.04,-0.0397,-0.0573,-0.0573,-0.0573,-0.0574,0,0,0.0967,0.1098,0.1177,0.1458,0.1603,0.1853,0.2031,0.2302,0.2401,0.2382,0.221,0.1842,0.1241,0.073,0.0151,-0.0187,-0.0183,-0.0248,-0.0231,0.0041,0.0064,-0.0301,-0.0277,0,0,0,0,0]}],[{"header":{"parameterUnit":"m.s-1","parameterCategory":2,"la1":30.2991,"la2":30.254,"lo1":-89.0895,"lo2":-89.0444,"dy":0.0017,"dx":0.0017,"nx":28,"ny":28,"refTime":"2023-08-12T21:00:00:Z","depth":"4","parameterNumber":2,"parameterNumberName":"U-component_of_CURRENTS"},"data":[0,0,0,0,0,0,0,0,0,0,0,0,0,0,0,0,0,0,0,0,0,0,0,0,0,0,0,0,0,0,0,0,0,0,0,0,0,0,0,0,0,0,0,0,0,0,0,0,0,0,0,0,0,0,0,0,0,0,0.1278,0.1279,0,0.1327,0.1328,0.1328,0.1372,0.1373,0.1374,0.1375,0.1455,0.1456,0.1457,0,0,0,0,0,0,0,0,0,0,0,0,0,0.1142,0.1144,0.1278,0.1279,0.128,0.1327,0.1328,0.1328,0.1372,0.1373,0.1375,0.1376,0.1455,0.1456,0.1458,0,0,0,0,0,0,0,0,0,0,0,0,0,0.1192,0.1145,0.1278,0.1312,0.1316,0.1327,0.1328,0.1328,0.1372,0.1373,0.1375,0.1376,0.1454,0.1456,0.1458,0.1437,0,0,0.1463,0.1464,0,0,0,0,0,0,0,0,0.1189,0.1196,0.1306,0.131,0.1314,0.135,0.1309,0.1368,0.1371,0.1345,0.1375,0.1377,0.1425,0.143,0.1427,0.1441,0.1445,0.1463,0.1464,0.1465,0.1466,0,0,0,0,0,0,0,0.1186,0.1194,0.1292,0.1307,0.1312,0.1298,0.1307,0.132,0.1372,0.1347,0.1352,0.1366,0.1427,0.1425,0.143,0.1446,0.1463,0.1465,0.1466,0.1467,0.1556,0.1557,0,0,0,0,0,0,0.1194,0.1192,0.1291,0.1294,0.1261,0.13,0.131,0.1333,0.1371,0.138,0.1364,0.1368,0.1421,0.1427,0.1433,0.1531,0.1465,0.1467,0.1468,0.1555,0.1556,0.1558,0,0,0,0,0,0,0.1191,0.1202,0.1289,0.1247,0.1258,0.1302,0.1326,0.1333,0.1371,0.1385,0.1394,0.1401,0.1423,0.143,0.1487,0.153,0.1467,0.1469,0.1553,0.1555,0.1557,0.1651,0,0,0,0,0,0,0.1187,0.1201,0.1229,0.1248,0.1261,0.1316,0.1326,0.1333,0.1377,0.1383,0.1418,0.1425,0.1425,0.1485,0.1489,0.1531,0.147,0.1551,0.1554,0.1556,0.1646,0.1656,0.1664,0,0,0,0,0,0.1182,0.1209,0.123,0.1242,0.1295,0.1318,0.1322,0.1353,0.1378,0.1393,0.1433,0.1426,0.1503,0.1488,0.1492,0.1536,0.155,0.1553,0.1556,0.1642,0.1654,0.1664,0,0,0,0,0,0,0.1153,0.1217,0.124,0.1284,0.1311,0.1328,0.1353,0.1373,0.1413,0.1436,0.1447,0.1456,0.1524,0.151,0.1493,0.1566,0.1523,0.1527,0.1587,0.1598,0.1607,0.1619,0.1472,0,0,0,0,0,0.1163,0.1213,0.125,0.1288,0.1307,0.1336,0.1356,0.1381,0.1414,0.1435,0.1467,0.1498,0.1529,0.1552,0.1573,0.1611,0.1606,0.1639,0.1648,0.1656,0.1668,0.1683,0.1695,0.1567,0.1567,0.1567,0,0,0.1162,0.1206,0.1234,0.1288,0.1314,0.1344,0.1352,0.1396,0.1437,0.1437,0.1514,0.1539,0.1548,0.1602,0.1628,0.1603,0.1694,0.166,0.1667,0.1675,0.1688,0.17,0.1711,0.1569,0.1569,0.1569,0,0,0.1168,0.1227,0.1261,0.1296,0.1353,0.1373,0.1396,0.1441,0.1481,0.1546,0.1564,0.161,0.1661,0.1672,0.1682,0.1747,0.1746,0.1766,0.1821,0.1837,0.1848,0.1857,0.1888,0.1899,0.1765,0.1765,0.1765,0,0.1158,0.1217,0.1269,0.1308,0.135,0.1392,0.143,0.1467,0.1532,0.1574,0.1588,0.1684,0.1687,0.1747,0.1777,0.1768,0.1792,0.1783,0.185,0.1859,0.1867,0.1896,0.1907,0.177,0.1769,0.1769,0.1768,0,0.1191,0.1239,0.1262,0.1338,0.1387,0.1428,0.1493,0.1549,0.161,0.1651,0.175,0.1768,0.1823,0.1832,0.1831,0.1898,0.1905,0.1865,0.1825,0.1886,0.1912,0.1922,0.1777,0.1775,0.1774,0.1772,0,0,0.1148,0.126,0.127,0.1307,0.1415,0.1445,0.1539,0.1617,0.1688,0.1758,0.1836,0.1899,0.1933,0.1946,0.1955,0.1969,0.2045,0.1961,0.1959,0.1997,0.2118,0.1984,0.1981,0.2036,0.2038,0.2039,0.2122,0,0.1147,0.1218,0.1293,0.1361,0.1398,0.1492,0.1573,0.1664,0.1757,0.1838,0.1882,0.1967,0.197,0.202,0.2039,0.2047,0.2075,0.2028,0.2048,0.2049,0.1926,0.1988,0.2045,0.2129,0.2131,0.2133,0.2134,0,0.1152,0.1201,0.1274,0.138,0.1409,0.1475,0.1629,0.1702,0.1833,0.1925,0.2026,0.2067,0.2137,0.2106,0.2177,0.2164,0.2161,0.2151,0.2153,0.1999,0.1932,0.2049,0.2152,0.215,0.2149,0.2148,0.2147,0,0.1091,0.1184,0.1246,0.1287,0.1416,0.1489,0.1571,0.1733,0.1825,0.1989,0.2087,0.217,0.2242,0.2247,0.225,0.2239,0.2291,0.2254,0.2133,0.2124,0.218,0.2168,0.2287,0.2287,0.2287,0.2287,0.2286,0,0.1062,0.1102,0.1225,0.1255,0.1349,0.1463,0.1596,0.1714,0.1879,0.1984,0.2128,0.2211,0.229,0.232,0.2286,0.2248,0.2328,0.2162,0.2135,0.2219,0.2211,0.2188,0.2175,0.229,0.2289,0.2288,0.2288,0,0.0988,0.1068,0.1124,0.1261,0.1323,0.1392,0.1603,0.1685,0.1892,0.2032,0.2093,0.2278,0.2339,0.2368,0.2379,0.2308,0.2254,0.2211,0.2328,0.2304,0.2079,0.207,0.2108,0.2104,0.21,0.2097,0.2095,0,0.0955,0.098,0.1115,0.1165,0.1238,0.1371,0.1467,0.1679,0.1779,0.2036,0.2071,0.2222,0.2309,0.2247,0.2273,0.2227,0.2184,0.218,0.211,0.2089,0.2061,0.2057,0.2054,0.2089,0.2088,0.2087,0.2087,0,0.0874,0.0932,0.0985,0.1089,0.119,0.1302,0.1453,0.1521,0.1747,0.1931,0.2037,0.2081,0.215,0.2155,0.2155,0.2094,0.2192,0.2144,0.215,0.2084,0.2067,0.2041,0.2042,0.2074,0.2076,0.2077,0.2078,0,0.0816,0.0834,0.0911,0.1003,0.1116,0.1208,0.1306,0.143,0.1557,0.1836,0.1837,0.1984,0.2117,0.2083,0.2043,0.2018,0.1986,0.193,0.1947,0.1961,0.1867,0.1821,0.1745,0,0,0,0,0,0.0739,0.0762,0.0824,0.0913,0.1015,0.1095,0.1282,0.1382,0.1585,0.1618,0.1742,0.1784,0.1825,0.1879,0.1818,0.1946,0.1968,0.1867,0.1906,0.2008,0.2022,0.1921,0,0,0,0,0,0,0.0695,0.0738,0.0779,0.0822,0.0865,0.098,0.1098,0.1238,0.1281,0.1483,0.1502,0.1663,0.17,0.1814,0.1769,0.1785,0.1776,0.1948,0.1944,0.2,0.2013,0.2024,0.1925,0,0,0,0,0]},{"header":{"parameterUnit":"m.s-1","parameterCategory":2,"la1":30.2991,"la2":30.254,"lo1":-89.0895,"lo2":-89.0444,"dy":0.0017,"dx":0.0017,"nx":28,"ny":28,"refTime":"2023-08-12T21:00:00:Z","depth":"4","parameterNumber":3,"parameterNumberName":"V-component_of_CURRENTS"},"data":[0,0,0,0,0,0,0,0,0,0,0,0,0,0,0,0,0,0,0,0,0,0,0,0,0,0,0,0,0,0,0,0,0,0,0,0,0,0,0,0,0,0,0,0,0,0,0,0,0,0,0,0,0,0,0,0,0,0,0.0047,0.0047,0,-0.0016,-0.0017,-0.0018,-0.0056,-0.0056,-0.0056,-0.0056,-0.0185,-0.0188,-0.0192,0,0,0,0,0,0,0,0,0,0,0,0,0,0.0097,0.0097,0.0047,0.0046,0.0046,-0.0016,-0.0017,-0.0018,-0.0056,-0.0056,-0.0056,-0.0056,-0.0184,-0.0188,-0.0192,0,0,0,0,0,0,0,0,0,0,0,0,0,0.0057,0.0097,0.0047,0.0021,0.0018,-0.0016,-0.0017,-0.0018,-0.0056,-0.0056,-0.0056,-0.0056,-0.0182,-0.0187,-0.0193,-0.0225,0,0,-0.0208,-0.0211,0,0,0,0,0,0,0,0,0.0059,0.0055,0.0026,0.0023,0.002,-0.0026,-0.0046,-0.009,-0.0056,-0.003,-0.0056,-0.0056,-0.0136,-0.0145,-0.016,-0.0231,-0.0237,-0.0209,-0.0212,-0.0214,-0.0216,0,0,0,0,0,0,0,0.0062,0.0057,0.002,0.0025,0.0022,0.0,-0.0005,-0.0055,-0.0086,-0.0033,-0.0035,-0.0038,-0.0139,-0.0155,-0.0163,-0.0239,-0.0209,-0.0213,-0.0216,-0.0219,-0.0364,-0.0365,0,0,0,0,0,0,0.0077,0.006,0.0022,0.0018,0.0043,-0.0,-0.0007,-0.0013,-0.0084,-0.0094,-0.0038,-0.004,-0.0146,-0.0157,-0.0168,-0.0222,-0.0214,-0.0219,-0.0222,-0.0363,-0.0364,-0.0365,0,0,0,0,0,0,0.0078,0.0074,0.0024,0.004,0.0032,-0.0001,-0.0008,-0.0015,-0.0027,-0.0087,-0.0098,-0.0043,-0.0146,-0.0161,-0.0218,-0.0226,-0.0221,-0.0226,-0.0362,-0.0363,-0.0365,-0.0323,0,0,0,0,0,0,0.008,0.0074,0.0076,0.0041,0.0032,0.0009,-0.0008,-0.0016,-0.0028,-0.0031,-0.0095,-0.0107,-0.0147,-0.021,-0.0223,-0.0234,-0.023,-0.0361,-0.0363,-0.0364,-0.0323,-0.0322,-0.0321,0,0,0,0,0,0.0082,0.0084,0.0076,0.0072,0.0035,0.001,0.0003,-0.0022,-0.0028,-0.0033,-0.0084,-0.0105,-0.0228,-0.0215,-0.0231,-0.0242,-0.0361,-0.0362,-0.0364,-0.0323,-0.0322,-0.0321,0,0,0,0,0,0,0.0106,0.008,0.007,0.0065,0.0043,0.0004,0.0001,-0.0017,-0.0059,-0.0064,-0.0119,-0.0136,-0.0191,-0.0223,-0.0207,-0.0289,-0.0296,-0.0301,-0.026,-0.026,-0.0259,-0.0254,-0.0234,0,0,0,0,0,0.0114,0.0108,0.0079,0.0074,0.0068,0.0036,0.0024,0.0005,-0.0035,-0.0052,-0.0098,-0.0153,-0.0211,-0.0238,-0.0293,-0.0336,-0.0374,-0.0353,-0.0352,-0.0351,-0.0359,-0.0424,-0.0429,-0.037,-0.037,-0.037,0,0,0.0122,0.0107,0.0104,0.0079,0.0062,0.0052,0.0028,0.0013,-0.0003,-0.0062,-0.0099,-0.0155,-0.0224,-0.0277,-0.0303,-0.0303,-0.0387,-0.0353,-0.0352,-0.036,-0.0426,-0.0432,-0.0437,-0.0372,-0.0371,-0.0371,0,0,0.0137,0.0124,0.0125,0.0112,0.009,0.0067,0.0067,0.003,0.0007,-0.0037,-0.0089,-0.0149,-0.0222,-0.0279,-0.0317,-0.0345,-0.0383,-0.0356,-0.0346,-0.0408,-0.0413,-0.0418,-0.0463,-0.0472,-0.035,-0.035,-0.035,0,0.0148,0.0146,0.0122,0.0121,0.0115,0.0079,0.0079,0.0048,-0.0006,-0.0033,-0.0042,-0.0177,-0.0227,-0.031,-0.0319,-0.0343,-0.0378,-0.034,-0.0406,-0.0412,-0.0418,-0.0462,-0.0473,-0.0348,-0.0349,-0.0349,-0.0349,0,0.0162,0.0164,0.0165,0.0152,0.0138,0.0134,0.0096,0.007,0.004,0.0,-0.0083,-0.0164,-0.0241,-0.0267,-0.0303,-0.0375,-0.0385,-0.0398,-0.0403,-0.0421,-0.0467,-0.0479,-0.0346,-0.0347,-0.0347,-0.0348,0,0,0.0178,0.0177,0.0177,0.0186,0.0157,0.015,0.012,0.0077,0.0057,-0.0015,-0.0064,-0.0169,-0.0214,-0.0261,-0.0319,-0.0377,-0.0443,-0.0399,-0.0403,-0.0434,-0.0571,-0.0512,-0.052,-0.0465,-0.0467,-0.0469,-0.0582,0,0.0197,0.0215,0.0199,0.0212,0.0222,0.0182,0.0158,0.0111,0.0064,0.0006,-0.0098,-0.0161,-0.021,-0.0245,-0.0317,-0.0422,-0.0475,-0.041,-0.0559,-0.0563,-0.05,-0.0532,-0.0475,-0.0591,-0.0594,-0.0596,-0.0598,0,0.0215,0.0228,0.0251,0.0253,0.0251,0.0249,0.0211,0.0185,0.0091,0.0051,-0.0042,-0.0119,-0.0239,-0.026,-0.0449,-0.0405,-0.0482,-0.0554,-0.0561,-0.053,-0.0526,-0.0576,-0.062,-0.0618,-0.0617,-0.0615,-0.0614,0,0.0247,0.0262,0.0286,0.0289,0.028,0.0276,0.0264,0.0198,0.0184,0.0083,0.006,-0.0103,-0.0168,-0.0315,-0.0458,-0.0459,-0.0649,-0.0667,-0.0688,-0.0685,-0.0722,-0.0715,-0.0784,-0.0784,-0.0784,-0.0783,-0.0783,0,0.0273,0.0292,0.0311,0.0327,0.0355,0.0326,0.0334,0.0296,0.0239,0.0225,0.0096,0.0042,-0.018,-0.0313,-0.0458,-0.0605,-0.0648,-0.0697,-0.0716,-0.07,-0.069,-0.073,-0.0722,-0.0788,-0.0787,-0.0786,-0.0785,0,0.0298,0.0309,0.0347,0.0363,0.0376,0.0396,0.0411,0.0407,0.0358,0.0333,0.0308,0.0141,-0.0036,-0.024,-0.0478,-0.057,-0.0735,-0.0765,-0.0721,-0.0734,-0.0735,-0.0724,-0.0828,-0.0827,-0.0826,-0.0826,-0.0825,0,0.0311,0.0336,0.039,0.0424,0.0438,0.0473,0.0492,0.0468,0.0477,0.0398,0.0386,0.0219,0.0093,-0.0198,-0.0426,-0.0695,-0.0714,-0.0784,-0.0783,-0.0735,-0.0743,-0.0733,-0.0724,-0.0824,-0.0823,-0.0823,-0.0823,0,0.0338,0.036,0.0394,0.0471,0.0517,0.0565,0.0601,0.0622,0.0591,0.0553,0.0465,0.0293,0.0098,-0.0172,-0.0359,-0.0557,-0.0746,-0.0776,-0.078,-0.078,-0.0731,-0.0737,-0.0729,-0.082,-0.082,-0.0821,-0.0821,0,0.036,0.0391,0.0444,0.0512,0.0576,0.0635,0.0652,0.0663,0.0665,0.0597,0.0561,0.0331,0.0184,-0.0099,-0.0291,-0.0466,-0.052,-0.0558,-0.0574,-0.058,-0.0472,-0.0371,-0.0373,0,0,0,0,0,0.0378,0.0416,0.0478,0.0545,0.0609,0.065,0.0709,0.0715,0.0707,0.0674,0.0627,0.0447,0.0148,-0.0013,-0.0178,-0.0296,-0.0562,-0.0493,-0.0616,-0.0803,-0.0806,-0.0715,0,0,0,0,0,0,0.0388,0.0445,0.0479,0.0565,0.0614,0.0681,0.0728,0.0722,0.0707,0.067,0.0506,0.0426,0.0119,0.0239,-0.018,-0.024,-0.0332,-0.0644,-0.0647,-0.0801,-0.0804,-0.0807,-0.0714,0,0,0,0,0]}]]